CAPE
1401 1361 1587 1719 1706 1715 1971 1900 1572 1516 1620 1718 1650 1435 1277 1345 1384 1341 1202 1010 935 866 475 264 435 188 48 39 22 63 108 49 38 88 49 64 61 48 20 61 49 28 44
1513 1457 1492 1782 1817 1837 2065 1915 1690 1659 1771 1862 1676 1377 1360 1504 1572 1438 1274 1045 946 872 302 186 97 37 30 31 44 136 57 45 39 42 51 40 39 23 5 11 29 13 17
1462 1773 1717 1702 1840 1944 2167 2041 1877 1950 2036 1935 1686 1475 1658 1718 1692 1549 1326 1111 979 803 213 180 43 22 24 14 35 50 49 57 78 88 81 28 21 17 7 9 10 10 13
1398 1952 1964 1695 1813 1934 1927 1909 1917 2137 2062 1872 1703 1717 1789 1788 1761 1470 1149 804 665 681 114 137 44 32 25 13 16 12 6 14 46 61 14 16 20 18 11 10 11 14 13
1248 1816 2067 1648 1758 1914 1956 1876 1412 1218 1748 1692 1689 1918 1897 1848 1666 1367 958 666 598 519 172 92 37 34 20 16 14 9 0 0 2 41 24 17 15 15 17 14 15 12 25
1091 1433 1775 1446 1509 1839 1345 1351 755 702 960 827 1073 1206 1823 1712 1575 1222 872 737 564 519 197 25 33 28 13 11 9 0 0 0 13 7 17 16 10 18 17 9 13 17 19
885 1112 1524 1284 1300 1556 1069 720 831 1042 778 678 706 911 1259 1534 1304 1031 814 584 519 323 169 17 12 8 5 1 0 0 0 0 6 4 2 9 17 20 17 18 14 14 12
884 918 1310 1053 1064 900 968 753 544 639 795 710 404 728 1080 1254 1111 898 776 668 568 316 92 13 13 4 2 0 0 0 0 0 0 2 4 9 26 18 20 17 13 13 13
667 931 897 985 874 455 701 417 536 618 680 495 364 479 713 877 772 841 770 625 540 208 7 5 5 5 2 0 0 0 0 1 0 4 1 10 18 23 18 18 17 17 17
283 580 674 875 913 709 628 370 184 413 355 443 438 351 399 411 526 428 366 492 295 144 4 3 3 2 1 0 0 0 0 0 4 1 1 7 21 16 17 18 15 13 13
174 178 460 658 472 213 404 406 284 292 343 242 196 253 168 195 395 208 215 283 193 76 3 0 1 1 0 0 0 0 0 0 1 3 2 27 21 16 16 14 13 13 11
336 215 105 377 275 213 290 209 175 527 234 160 95 200 96 120 165 186 250 209 143 12 0 1 2 0 0 0 0 0 0 1 2 0 5 29 22 17 16 13 8 6 5
42 41 141 138 158 194 194 167 319 1108 545 217 83 77 137 76 123 262 273 259 104 0 0 0 0 0 0 0 0 0 0 0 2 3 7 24 17 17 16 10 6 4 2
5 0 23 42 187 48 67 209 275 505 441 390 80 35 20 18 62 165 213 135 85 22 0 0 0 1 0 0 0 0 0 0 1 12 15 24 25 15 10 5 4 1 0
8 4 0 21 77 40 70 112 66 285 117 51 19 15 7 18 29 70 159 169 117 85 41 6 4 0 0 0 0 0 0 0 3 7 8 14 25 15 8 5 0 0 0
22 2 0 3 20 5 28 76 23 5 18 26 30 2 9 8 27 26 40 28 127 163 94 25 2 0 0 0 0 0 0 0 0 3 1 4 10 21 13 2 0 0 0
6 2 0 6 10 14 6 1 0 18 8 1 3 3 8 51 68 31 2 0 3 20 42 7 10 0 0 0 0 0 0 0 0 0 1 3 5 12 15 9 0 0 0
4 3 0 2 12 5 0 0 12 0 7 6 6 6 51 60 24 8 0 0 1 1 0 0 0 0 0 0 0 0 0 0 0 0 0 3 7 2 5 23 14 1 0
2 6 0 0 10 2 0 1 0 3 2 39 15 34 40 18 3 0 0 0 7 0 0 0 0 0 0 0 0 0 0 0 0 0 0 0 3 6 14 4 18 26 2
7 12 0 2 30 24 1 1 2 2 0 1 34 29 10 0 2 13 7 21 13 0 0 0 0 0 0 0 0 0 0 0 0 0 0 0 0 0 0 0 0 0 0
14 5 0 8 26 12 7 6 2 4 0 0 38 39 34 12 8 15 17 1 4 2 0 0 1 3 1 1 0 0 26 19 10 0 0 0 0 0 3 6 5 1 1
14 9 0 31 0 14 5 6 12 6 1 0 41 58 42 13 0 13 20 0 3 0 6 15 8 15 18 13 3 13 20 8 21 15 5 2 0 0 0 1 7 3 2
19 21 4 0 1 4 3 5 2 8 8 0 107 52 56 47 10 17 8 17 22 77 62 39 5 13 10 4 9 21 117 120 72 1 3 1 0 6 0 0 3 3 1
15 16 19 1 0 2 1 7 0 0 0 0 1 54 63 100 92 25 32 38 90 58 55 80 36 38 29 47 0 2 25 119 130 102 2 2 8 2 2 1 4 0 0
7 9 20 0 4 7 8 5 3 0 0 62 3 0 0 112 116 56 54 57 89 65 78 102 77 94 66 99 112 109 9 4 9 70 102 26 0 2 16 4 0 0 0
3 2 21 0 9 1 9 8 2 0 0 0 3 1 0 81 107 135 76 84 90 78 86 154 182 162 128 141 144 137 146 103 80 69 74 70 64 26 1 11 2 0 0
CIN
-38 -10 -12 -5 -11 -7 -2 -3 -13 -31 -7 -1 -1 0 -1 0 0 -6 0 0 0 0 0 -1 0 -4 0 0 -4 -3 -10 -1 -2 -8 0 0 0 0 0 0 -1 0 0
-57 -27 -26 -3 -11 -8 -2 -5 -13 -17 -1 0 0 0 0 0 0 0 0 0 0 0 -3 -10 -8 -9 -1 0 0 -5 -3 -3 -1 0 0 0 0 0 0 0 0 0 0
-53 -12 -1 -5 -15 -16 -2 -2 -1 -1 0 0 0 0 0 0 0 0 0 0 0 0 -3 -7 -1 0 0 0 -2 -2 -4 -4 -1 -2 -2 0 0 0 0 0 0 0 0
-63 -5 -1 -15 -11 -12 -11 -13 -5 0 0 0 0 0 0 0 0 0 0 -1 -1 0 -11 -6 -2 0 0 -2 -3 -8 -21 -19 -9 -2 -1 0 0 0 0 0 0 0 0
-70 -15 0 -44 -35 -4 -1 -3 -19 -18 -1 0 0 0 0 0 0 0 -3 -3 0 0 -2 -3 0 0 0 0 -3 -13 0 0 -29 -5 0 0 0 0 0 0 0 0 0
-78 -56 -16 -48 -27 -1 -15 -14 -26 -2 -8 -12 -15 -2 0 0 0 0 -7 -1 0 0 -6 0 0 0 0 0 0 0 0 0 -36 0 0 0 0 0 0 0 0 0 0
-107 -87 -32 -41 -22 -2 -20 -28 -22 -4 -27 -58 -29 0 -1 0 0 0 -2 -1 0 -13 -7 0 0 0 0 0 0 0 0 0 0 0 0 0 0 0 0 0 0 0 0
-100 -90 -32 -47 -28 -12 -6 -25 -52 -34 -18 -18 -62 0 -1 0 0 -1 -3 -1 0 -2 -18 0 0 0 0 0 0 0 0 0 0 0 0 0 0 0 0 0 0 0 0
-132 -72 -51 -13 -24 -46 -23 -42 -24 -17 -3 -18 -9 -1 -7 -2 -4 -3 -1 -1 0 -2 -5 0 0 0 0 0 0 0 0 -24 0 0 0 0 0 0 0 0 0 0 0
-176 -80 -53 -5 -4 -26 -5 -26 -63 -30 -42 -39 -3 -5 -5 -12 -5 -5 -7 -1 -3 -5 0 0 0 0 0 0 0 0 0 0 0 0 0 0 0 0 0 0 0 0 0
-161 -123 -52 -12 -19 -62 -1 -5 -4 -13 -15 -20 -16 -11 -8 -6 -2 -11 -6 -5 -10 -14 0 0 0 0 0 0 0 0 0 0 0 0 0 0 0 0 0 0 0 0 0
-98 -98 -103 -19 -7 -1 -2 -12 -13 0 -4 -1 -4 -3 -6 -12 -3 -1 -1 -3 -23 -16 0 0 0 0 0 0 0 0 0 0 0 0 0 -1 0 0 0 0 0 0 0
-169 -88 -65 -22 -11 -4 -3 -5 -1 0 -4 -6 -1 0 0 -5 -14 0 -2 0 -31 0 0 0 0 0 0 0 0 0 0 0 0 0 -3 -2 0 0 0 0 0 0 0
0 0 -101 -59 -1 -23 -13 -6 -1 -1 0 0 0 0 0 -5 -11 0 0 0 -39 -82 0 0 0 0 0 0 0 0 0 0 0 0 -1 -4 0 0 0 0 0 0 0
-80 0 0 -78 -25 -47 -12 -10 -9 -1 0 0 -4 0 0 -8 -5 -74 -14 -3 -20 -41 -37 -25 -26 0 0 0 0 0 0 0 0 0 0 -7 -3 0 0 0 0 0 0
-158 0 0 -108 -38 -9 -31 -2 -18 0 -1 -1 0 0 -1 -1 -7 -135 -126 -132 -43 -9 -14 -50 -91 0 0 0 0 0 0 0 0 0 0 0 -6 -2 0 0 0 0 0
0 0 0 -18 0 -68 0 -46 0 0 0 0 -1 0 0 -33 -99 -155 -57 0 -246 -180 -85 -106 -107 0 0 0 0 0 0 0 0 0 0 0 -1 -12 -3 0 0 0 0
0 0 0 0 -27 -14 0 0 0 0 0 0 0 -9 -37 -88 -52 -80 0 0 -6 -25 0 0 0 0 0 0 0 0 0 0 0 0 0 0 0 0 -9 -3 0 0 0
0 0 0 0 0 0 -2 -1 0 0 0 -10 -6 -2 -73 -190 -73 0 0 0 -4 -14 0 0 0 0 0 0 0 0 0 0 0 0 0 0 0 0 0 -4 -6 -3 0
0 0 0 -2 0 -1 -5 0 -3 0 0 -1 -13 -73 -161 0 -13 -78 -14 0 -5 -7 0 0 0 0 0 0 0 0 0 0 0 0 0 0 0 0 0 0 0 0 0
0 0 0 0 -1 -2 -3 0 0 0 0 0 -38 -70 -100 -7 -3 0 -5 -1 -11 -15 0 0 -6 -6 -6 -11 0 0 -1 -7 -14 0 0 0 0 0 0 0 -8 0 -1
0 0 0 0 -4 -1 0 0 0 0 0 0 -39 -41 -46 -75 0 0 -40 -41 -28 0 -3 -1 -4 -1 -3 -7 -5 -3 -4 -16 -17 -16 -8 -4 0 0 0 -2 -1 -1 0
0 0 0 0 -7 0 0 0 0 0 0 0 -4 -20 -30 -21 -5 0 -86 -71 -79 -33 -65 -54 -55 -12 -8 -5 -14 -7 0 0 0 -12 -16 -5 0 -1 0 0 -3 -1 -1
0 0 -171 0 0 -3 0 0 0 0 0 0 0 -17 -16 -13 -33 -41 -46 -42 -55 -43 -26 -29 -44 -26 -21 -15 -4 -44 -33 -4 0 0 -6 -18 -6 -8 -1 0 0 0 0
0 0 0 -5 -189 -2 -1 0 0 0 0 0 0 0 0 -16 -15 -31 -26 -28 -47 -23 -31 -25 -23 -24 -14 -1 0 0 -41 -30 -20 -1 0 -1 0 -22 -7 -1 -1 0 0
0 0 0 0 -83 -25 -2 0 0 0 0 0 -1 0 0 -5 -7 -10 -16 -34 -36 -35 -37 -18 -11 -20 -14 0 0 0 0 0 0 -1 -1 -1 -2 -1 -1 -2 0 0 0
Wind_Speed
33 36 35 33 37 40 41 41 40 36 41 43 45 34 36 38 30 38 42 44 33 26 25 20 16 17 nan nan nan nan 24 nan nan nan nan nan nan nan nan nan nan nan nan
28 32 41 38 38 38 39 42 42 37 40 44 44 42 40 37 31 38 39 41 30 26 24 21 nan nan nan nan nan 23 nan nan nan nan nan nan nan nan nan nan nan nan nan
30 32 35 34 37 37 37 41 44 46 39 40 41 37 38 36 29 27 24 24 26 26 26 22 nan nan nan nan nan nan nan nan nan nan nan nan nan nan nan nan nan nan nan
24 18 28 33 34 37 36 37 45 47 50 49 47 37 39 34 25 39 30 27 31 25 24 21 nan nan nan nan nan nan nan nan nan nan nan nan nan nan nan nan nan nan nan
26 23 25 31 32 33 37 41 41 36 40 45 45 45 38 40 34 37 33 29 30 25 23 nan nan nan nan nan nan nan nan nan nan nan nan nan nan nan nan nan nan nan nan
22 26 25 29 29 37 35 47 30 15 28 25 40 43 44 29 35 42 37 33 33 17 21 nan nan nan nan nan nan nan nan nan nan nan nan nan nan nan nan nan nan nan nan
16 17 19 25 30 35 42 30 27 24 30 41 43 18 18 29 38 37 35 26 29 21 26 nan nan nan nan nan nan nan nan nan nan nan nan nan nan nan nan nan nan nan nan
18 20 19 24 26 28 35 29 33 31 17 26 45 12 18 28 34 36 25 31 30 26 nan nan nan nan nan nan nan nan nan nan nan nan nan nan nan nan nan nan nan nan nan
19 23 21 24 27 13 26 22 21 21 32 22 21 12 25 29 29 30 39 36 38 31 nan nan nan nan nan nan nan nan nan nan nan nan nan nan nan nan nan nan nan nan nan
22 23 22 24 22 12 17 25 14 11 15 20 16 23 21 28 28 34 42 42 41 34 nan nan nan nan nan nan nan nan nan nan nan nan nan nan nan nan nan nan nan nan nan
28 24 23 23 25 16 5 15 14 4 6 13 12 12 19 21 26 27 38 38 43 nan nan nan nan nan nan nan nan nan nan nan nan nan nan nan nan nan nan nan nan nan nan
29 25 24 23 24 16 1 15 11 5 7 9 nan 17 nan 23 22 24 32 37 47 nan nan nan nan nan nan nan nan nan nan nan nan nan nan nan nan nan nan nan nan nan nan
nan nan 25 24 20 19 8 13 13 15 13 13 nan nan 24 nan 29 27 31 35 42 nan nan nan nan nan nan nan nan nan nan nan nan nan nan nan nan nan nan nan nan nan nan
nan nan nan nan 19 nan nan 15 19 19 22 26 nan nan nan nan nan 34 30 37 nan nan nan nan nan nan nan nan nan nan nan nan nan nan nan nan nan nan nan nan nan nan nan
nan nan nan nan nan nan nan 13 nan 21 23 nan nan nan nan nan nan nan 42 34 43 nan nan nan nan nan nan nan nan nan nan nan nan nan nan nan nan nan nan nan nan nan nan
nan nan nan nan nan nan nan nan nan nan nan nan nan nan nan nan nan nan nan nan 44 44 nan nan nan nan nan nan nan nan nan nan nan nan nan nan nan nan nan nan nan nan nan
nan nan nan nan nan nan nan nan nan nan nan nan nan nan nan nan nan nan nan nan nan nan nan nan nan nan nan nan nan nan nan nan nan nan nan nan nan nan nan nan nan nan nan
nan nan nan nan nan nan nan nan nan nan nan nan nan nan nan nan nan nan nan nan nan nan nan nan nan nan nan nan nan nan nan nan nan nan nan nan nan nan nan nan nan nan nan
nan nan nan nan nan nan nan nan nan nan nan nan nan nan nan nan nan nan nan nan nan nan nan nan nan nan nan nan nan nan nan nan nan nan nan nan nan nan nan nan nan nan nan
nan nan nan nan nan nan nan nan nan nan nan nan nan nan nan nan nan nan nan nan nan nan nan nan nan nan nan nan nan nan nan nan nan nan nan nan nan nan nan nan nan nan nan
nan nan nan nan nan nan nan nan nan nan nan nan nan nan nan nan nan nan nan nan nan nan nan nan nan nan nan nan nan nan nan nan nan nan nan nan nan nan nan nan nan nan nan
nan nan nan nan nan nan nan nan nan nan nan nan nan nan nan nan nan nan nan nan nan nan nan nan nan nan nan nan nan nan nan nan nan nan nan nan nan nan nan nan nan nan nan
nan nan nan nan nan nan nan nan nan nan nan nan 7 nan nan nan nan nan nan nan nan nan nan nan nan nan nan nan nan nan 15 12 nan nan nan nan nan nan nan nan nan nan nan
nan nan nan nan nan nan nan nan nan nan nan nan nan nan nan 7 nan nan nan nan nan nan nan nan nan nan nan nan nan nan nan 17 21 22 nan nan nan nan nan nan nan nan nan
nan nan nan nan nan nan nan nan nan nan nan nan nan nan nan 11 10 nan nan nan nan nan nan 11 nan nan nan nan 17 17 nan nan nan nan 21 nan nan nan nan nan nan nan nan
nan nan nan nan nan nan nan nan nan nan nan nan nan nan nan nan 7 2 nan nan nan nan nan 9 11 12 15 15 16 18 19 20 nan nan nan nan nan nan nan nan nan nan nan
Wind_Direction
294 294 285 281 275 269 270 276 277 272 271 279 274 282 278 282 286 277 262 256 253 250 255 259 265 269 nan nan nan nan 277 nan nan nan nan nan nan nan nan nan nan nan nan
282 298 290 289 280 274 274 279 281 282 274 278 274 277 278 282 288 277 258 256 252 249 259 260 nan nan nan nan nan 272 nan nan nan nan nan nan nan nan nan nan nan nan nan
287 291 296 287 282 280 279 285 286 287 276 275 277 283 276 279 273 282 252 244 257 260 257 258 nan nan nan nan nan nan nan nan nan nan nan nan nan nan nan nan nan nan nan
280 269 295 289 288 284 284 286 282 280 281 277 276 282 281 270 260 269 255 249 254 260 264 260 nan nan nan nan nan nan nan nan nan nan nan nan nan nan nan nan nan nan nan
280 273 290 296 290 284 273 275 284 286 280 276 274 273 272 272 266 253 257 250 255 251 265 nan nan nan nan nan nan nan nan nan nan nan nan nan nan nan nan nan nan nan nan
286 279 284 293 287 282 290 260 241 209 256 243 265 266 264 265 262 245 244 246 250 252 252 nan nan nan nan nan nan nan nan nan nan nan nan nan nan nan nan nan nan nan nan
308 295 306 299 290 285 285 288 284 291 295 275 290 301 243 267 255 249 237 247 254 244 247 nan nan nan nan nan nan nan nan nan nan nan nan nan nan nan nan nan nan nan nan
307 307 303 310 297 285 267 272 259 269 294 299 291 239 248 259 258 251 253 254 243 239 nan nan nan nan nan nan nan nan nan nan nan nan nan nan nan nan nan nan nan nan nan
303 313 311 312 318 315 261 258 262 272 269 276 287 216 247 247 252 253 253 254 251 241 nan nan nan nan nan nan nan nan nan nan nan nan nan nan nan nan nan nan nan nan nan
297 303 309 321 320 335 255 235 240 229 282 311 307 233 231 254 248 253 247 254 247 232 nan nan nan nan nan nan nan nan nan nan nan nan nan nan nan nan nan nan nan nan nan
295 292 304 315 333 350 263 216 206 204 248 294 296 248 257 241 246 259 236 243 244 nan nan nan nan nan nan nan nan nan nan nan nan nan nan nan nan nan nan nan nan nan nan
295 289 289 302 311 326 189 236 217 225 235 239 nan 212 nan 222 247 248 231 251 243 nan nan nan nan nan nan nan nan nan nan nan nan nan nan nan nan nan nan nan nan nan nan
nan nan 294 293 289 290 237 216 218 224 220 209 nan nan 246 nan 239 230 240 240 233 nan nan nan nan nan nan nan nan nan nan nan nan nan nan nan nan nan nan nan nan nan nan
nan nan nan nan 282 nan nan 224 215 214 222 217 nan nan nan nan nan 253 248 250 nan nan nan nan nan nan nan nan nan nan nan nan nan nan nan nan nan nan nan nan nan nan nan
nan nan nan nan nan nan nan 222 nan 225 238 nan nan nan nan nan nan nan 251 245 234 nan nan nan nan nan nan nan nan nan nan nan nan nan nan nan nan nan nan nan nan nan nan
nan nan nan nan nan nan nan nan nan nan nan nan nan nan nan nan nan nan nan nan 237 235 nan nan nan nan nan nan nan nan nan nan nan nan nan nan nan nan nan nan nan nan nan
nan nan nan nan nan nan nan nan nan nan nan nan nan nan nan nan nan nan nan nan nan nan nan nan nan nan nan nan nan nan nan nan nan nan nan nan nan nan nan nan nan nan nan
nan nan nan nan nan nan nan nan nan nan nan nan nan nan nan nan nan nan nan nan nan nan nan nan nan nan nan nan nan nan nan nan nan nan nan nan nan nan nan nan nan nan nan
nan nan nan nan nan nan nan nan nan nan nan nan nan nan nan nan nan nan nan nan nan nan nan nan nan nan nan nan nan nan nan nan nan nan nan nan nan nan nan nan nan nan nan
nan nan nan nan nan nan nan nan nan nan nan nan nan nan nan nan nan nan nan nan nan nan nan nan nan nan nan nan nan nan nan nan nan nan nan nan nan nan nan nan nan nan nan
nan nan nan nan nan nan nan nan nan nan nan nan nan nan nan nan nan nan nan nan nan nan nan nan nan nan nan nan nan nan nan nan nan nan nan nan nan nan nan nan nan nan nan
nan nan nan nan nan nan nan nan nan nan nan nan nan nan nan nan nan nan nan nan nan nan nan nan nan nan nan nan nan nan nan nan nan nan nan nan nan nan nan nan nan nan nan
nan nan nan nan nan nan nan nan nan nan nan nan 244 nan nan nan nan nan nan nan nan nan nan nan nan nan nan nan nan nan 261 266 nan nan nan nan nan nan nan nan nan nan nan
nan nan nan nan nan nan nan nan nan nan nan nan nan nan nan 235 nan nan nan nan nan nan nan nan nan nan nan nan nan nan nan 244 268 275 nan nan nan nan nan nan nan nan nan
nan nan nan nan nan nan nan nan nan nan nan nan nan nan nan 256 259 nan nan nan nan nan nan 250 nan nan nan nan 256 265 nan nan nan nan 270 nan nan nan nan nan nan nan nan
nan nan nan nan nan nan nan nan nan nan nan nan nan nan nan nan 276 241 nan nan nan nan nan 256 266 267 268 268 262 267 270 272 nan nan nan nan nan nan nan nan nan nan nan